Weather History for Whiting Fld NAS, FL

Change the Weather History Date:

Saturday, February 23, 2013

  Actual Average Record
Temperature  
Mean Temperature 63 °F -  
Max Temperature 71 °F 64 °F 82 °F (2011)
Min Temperature 55 °F 46 °F 32 °F (2009)
Degree Days  
Heating Degree Days 2    
Growing Degree Days 13 (Base 50)    
Moisture  
Dew Point 57 °F    
Average Humidity 90    
Maximum Humidity 100    
Minimum Humidity 82    
Precipitation  
Precipitation 0.63 in - - ()
Sea Level Pressure  
Sea Level Pressure 29.87 in    
Wind  
Wind Speed 7 mph (NNW)    
Max Wind Speed 15 mph    
Max Gust Speed 22 mph    
Visibility 7 miles    
Events Rain , Thunderstorm    
Averages and records for this station are not official NWS values.
T = Trace of Precipitation, MM = Missing Value Source: NWS Daily Summary

Daily Weather History Graph

Daily Weather History Graph

Search for Another Location

Airport:

Trip Planner

Search our weather history database for the weather conditions in past years. The results will help you decide how hot, cold, wet, or windy it might be!

Date:

Astronomy

Feb. 23, 2013 Rise Set
Actual Time 6:20 AM CST 5:42 PM CST
Civil Twilight 5:56 AM CST 6:06 PM CST
Nautical Twilight 5:28 AM CST 6:34 PM CST
Astronomical Twilight 5:00 AM CST 7:02 PM CST
Moon 3:56 PM CST (2/23) 4:37 AM CST (2/23)
Length of Visible Light 12h 10m
Length of Day
11h 21m
Waxing Gibbous, 95% of the Moon is Illuminated
Feb 23
Waxing Gibbous
Feb 25
Full
Mar 4
Last Quarter
Mar 11
New
Mar 19
First Quarter

Hourly Weather History & Observations

Time (CST) Temp. Dew Point Humidity Pressure Visibility Wind Dir Wind Speed Gust Speed Precip Events Conditions
12:08 AM 69.8 °F 66.2 °F 88% 29.89 in 2.0 mi SSW 8.1 mph - N/A   Overcast
12:25 AM 69.8 °F 68.0 °F 94% 29.90 in 4.0 mi SSW 10.4 mph - N/A   Overcast
12:42 AM 69.8 °F 68.0 °F 94% 29.89 in 4.0 mi SSW 9.2 mph - N/A   Overcast
12:56 AM 70.0 °F 66.9 °F 90% 29.84 in 5.0 mi SSW 8.1 mph - N/A   Overcast
1:56 AM 71.1 °F 66.9 °F 87% 29.82 in 5.0 mi SSW 10.4 mph - N/A   Overcast
2:56 AM 70.0 °F 66.9 °F 90% 29.81 in 6.0 mi WSW 10.4 mph - N/A   Overcast
3:07 AM 71.6 °F 66.2 °F 83% 29.85 in 6.0 mi SW 8.1 mph - N/A   Overcast
3:16 AM 69.8 °F 66.2 °F 88% 29.85 in 6.0 mi SSW 8.1 mph - N/A   Overcast
3:51 AM 69.8 °F 66.2 °F 88% 29.85 in 7.0 mi SW 8.1 mph - N/A   Overcast
3:56 AM 70.0 °F 66.9 °F 90% 29.81 in 6.0 mi WSW 9.2 mph - N/A   Overcast
4:45 AM 62.6 °F 60.8 °F 94% 29.88 in 5.0 mi NW 15.0 mph 21.9 mph 0.00 in Rain Light Rain
4:56 AM 60.1 °F 57.9 °F 93% 29.84 in 3.0 mi NNW 9.2 mph - 0.00 in Rain Light Rain
5:23 AM 57.2 °F 55.4 °F 94% 29.88 in 9.0 mi Variable 3.5 mph - 0.00 in   Overcast
5:39 AM 59.0 °F 55.4 °F 88% 29.87 in 10.0 mi NNE 4.6 mph - 0.00 in   Overcast
5:56 AM 59.0 °F 55.9 °F 90% 29.84 in 10.0 mi Calm Calm - 0.00 in   Overcast
6:23 AM 59.0 °F 55.4 °F 88% 29.89 in 8.0 mi Calm Calm - 0.00 in Rain Light Rain
6:46 AM 59.0 °F 55.4 °F 88% 29.89 in 10.0 mi North 6.9 mph - 0.01 in Rain Light Rain
6:56 AM 59.0 °F 55.9 °F 90% 29.86 in 2.0 mi NNW 9.2 mph - 0.06 in Rain Rain
7:07 AM 57.2 °F 57.2 °F 100% 29.91 in 1.0 mi NNW 6.9 mph - 0.17 in Rain Heavy Rain
7:29 AM 57.2 °F 57.2 °F 100% 29.91 in 1.5 mi Calm Calm - 0.29 in Rain , Thunderstorm Thunderstorms and Rain
7:47 AM 57.2 °F 57.2 °F 100% 29.92 in 3.0 mi NW 4.6 mph - 0.37 in Rain , Thunderstorm Rain
7:56 AM 57.9 °F 55.9 °F 93% 29.87 in 2.0 mi North 5.8 mph - 0.41 in Rain Heavy Rain
8:20 AM 57.2 °F 55.4 °F 94% 29.93 in 3.0 mi NNW 9.2 mph - 0.09 in Rain Rain
8:39 AM 57.2 °F 55.4 °F 94% 29.92 in 5.0 mi North 6.9 mph - 0.13 in Rain Rain
8:56 AM 55.9 °F 55.0 °F 97% 29.86 in 5.0 mi NE 3.5 mph - 0.14 in Rain Rain
9:14 AM 57.2 °F 55.4 °F 94% 29.90 in 6.0 mi NNW 6.9 mph - 0.01 in Rain Light Rain
9:41 AM 57.2 °F 55.4 °F 94% 29.90 in 7.0 mi North 5.8 mph - 0.01 in   Overcast
9:56 AM 57.0 °F 55.9 °F 96% 29.86 in 10.0 mi North 5.8 mph - 0.01 in   Overcast
10:56 AM 57.9 °F 57.0 °F 97% 29.87 in 10.0 mi Calm Calm - 0.00 in Rain Light Rain
11:56 AM 59.0 °F 55.0 °F 87% 29.86 in 10.0 mi North 3.5 mph - N/A   Overcast
12:56 PM 59.0 °F 55.0 °F 87% 29.85 in 10.0 mi North 5.8 mph - N/A   Overcast
1:56 PM 59.0 °F 55.0 °F 87% 29.84 in 10.0 mi North 6.9 mph - N/A   Overcast
2:56 PM 59.0 °F 54.0 °F 83% 29.84 in 10.0 mi NNW 6.9 mph - 0.00 in Rain Light Rain
3:13 PM 57.2 °F 55.4 °F 94% 29.88 in 8.0 mi NNW 6.9 mph - 0.00 in Rain Light Rain
3:56 PM 57.9 °F 55.0 °F 90% 29.85 in 10.0 mi East 4.6 mph - 0.00 in Rain Light Rain
4:47 PM 57.2 °F 53.6 °F 88% 29.80 in 10.0 mi ENE 9.2 mph 17.3 mph 0.01 in   Mostly Cloudy
4:56 PM 57.9 °F 55.0 °F 90% 29.76 in 10.0 mi ENE 8.1 mph - 0.01 in   Mostly Cloudy
5:16 PM 57.2 °F 55.4 °F 94% 29.82 in 10.0 mi East 4.6 mph - N/A   Overcast
5:35 PM 57.2 °F 53.6 °F 88% 29.81 in 10.0 mi ENE 4.6 mph - N/A   Scattered Clouds
5:56 PM 57.9 °F 54.0 °F 87% 29.82 in 10.0 mi NW 8.1 mph - N/A   Mostly Cloudy
6:56 PM 57.9 °F 55.0 °F 90% 29.85 in 10.0 mi Variable 4.6 mph - N/A   Overcast
7:56 PM 57.0 °F 54.0 °F 89% 29.87 in 10.0 mi North 6.9 mph - N/A   Overcast
8:45 PM 57.2 °F 53.6 °F 88% 29.92 in 10.0 mi Calm Calm - N/A   Overcast
8:56 PM 57.0 °F 54.0 °F 89% 29.89 in 10.0 mi Calm Calm - N/A   Overcast
9:42 PM 57.2 °F 53.6 °F 88% 29.95 in 10.0 mi NW 3.5 mph - N/A   Overcast
9:56 PM 57.0 °F 54.0 °F 89% 29.91 in 9.0 mi Calm Calm - N/A   Overcast
10:53 PM 57.2 °F 53.6 °F 88% 29.95 in 10.0 mi North 4.6 mph - N/A   Overcast
10:56 PM 57.0 °F 53.1 °F 87% 29.91 in 10.0 mi North 3.5 mph - N/A   Overcast
11:07 PM 57.2 °F 53.6 °F 88% 29.95 in 10.0 mi North 4.6 mph - N/A   Overcast
11:40 PM 57.2 °F 51.8 °F 82% 29.95 in 9.0 mi North 5.8 mph - N/A   Overcast
11:56 PM 57.0 °F 52.0 °F 83% 29.92 in 9.0 mi North 4.6 mph - N/A   Overcast